owner,sensor,date,latitude,longitude,vertical_datum,wind_speed,wind_to_direction,wind_speed_of_gust,qcFlag 
DISL,ioos:station:DISL:DISL:1,2011-07-01T00:00:00Z,30.2513,-88.0778,9.68,3.14,223.8,-9999.0,'1111122,1111122,1111122' 
DISL,ioos:station:DISL:DISL:1,2011-07-01T00:30:00Z,30.2513,-88.0778,9.68,2.53,238.8,-9999.0,'1111122,1111122,1111122' 
DISL,ioos:station:DISL:DISL:1,2011-07-01T01:00:00Z,30.2513,-88.0778,9.68,2.04,246.3,-9999.0,'1111122,1111122,1111122' 
DISL,ioos:station:DISL:DISL:1,2011-07-01T01:30:00Z,30.2513,-88.0778,9.68,2.31,248.2,-9999.0,'1111122,1111122,1111122' 
DISL,ioos:station:DISL:DISL:1,2011-07-01T02:00:00Z,30.2513,-88.0778,9.68,2.32,253.8,-9999.0,'1111122,1111122,1111122' 
DISL,ioos:station:DISL:DISL:1,2011-07-01T02:30:00Z,30.2513,-88.0778,9.68,2.63,249.5,-9999.0,'1111122,1111122,1111122' 
DISL,ioos:station:DISL:DISL:1,2011-07-01T03:00:00Z,30.2513,-88.0778,9.68,1.98,239.0,-9999.0,'1111122,1111122,1111122' 
DISL,ioos:station:DISL:DISL:1,2011-07-01T03:30:00Z,30.2513,-88.0778,9.68,1.82,251.9,-9999.0,'1111122,1111122,1111122' 
DISL,ioos:station:DISL:DISL:1,2011-07-01T04:00:00Z,30.2513,-88.0778,9.68,1.54,246.7,-9999.0,'1111122,1111122,1111122' 
DISL,ioos:station:DISL:DISL:1,2011-07-01T04:30:00Z,30.2513,-88.0778,9.68,1.62,252.1,-9999.0,'1111122,1111122,1111122' 
DISL,ioos:station:DISL:DISL:1,2011-07-01T05:00:00Z,30.2513,-88.0778,9.68,1.5,253.6,-9999.0,'1111122,1111122,1111122' 
DISL,ioos:station:DISL:DISL:1,2011-07-01T05:30:00Z,30.2513,-88.0778,9.68,1.58,263.6,-9999.0,'1111122,1111122,1111122' 
DISL,ioos:station:DISL:DISL:1,2011-07-01T06:00:00Z,30.2513,-88.0778,9.68,1.44,257.5,-9999.0,'1111122,1111122,1111122' 
DISL,ioos:station:DISL:DISL:1,2011-07-01T06:30:00Z,30.2513,-88.0778,9.68,1.45,258.6,-9999.0,'1111122,1111122,1111122' 
DISL,ioos:station:DISL:DISL:1,2011-07-01T07:00:00Z,30.2513,-88.0778,9.68,1.75,257.6,-9999.0,'1111122,1111122,1111122' 
DISL,ioos:station:DISL:DISL:1,2011-07-01T07:30:00Z,30.2513,-88.0778,9.68,2.06,255.0,-9999.0,'1111122,1111122,1111122' 
DISL,ioos:station:DISL:DISL:1,2011-07-01T08:00:00Z,30.2513,-88.0778,9.68,1.69,263.1,-9999.0,'1111122,1111122,1111122' 
DISL,ioos:station:DISL:DISL:1,2011-07-01T08:30:00Z,30.2513,-88.0778,9.68,1.8,255.9,-9999.0,'1111122,1111122,1111122' 
DISL,ioos:station:DISL:DISL:1,2011-07-01T09:00:00Z,30.2513,-88.0778,9.68,1.49,263.9,-9999.0,'1111122,1111122,1111122' 
DISL,ioos:station:DISL:DISL:1,2011-07-01T09:30:00Z,30.2513,-88.0778,9.68,6.34,305.6,-9999.0,'1111122,1111122,1111122' 
DISL,ioos:station:DISL:DISL:1,2011-07-01T10:00:00Z,30.2513,-88.0778,9.68,5.03,300.2,-9999.0,'1111122,1111122,1111122' 
DISL,ioos:station:DISL:DISL:1,2011-07-01T10:30:00Z,30.2513,-88.0778,9.68,3.2,257.6,-9999.0,'1111122,1111122,1111122' 
DISL,ioos:station:DISL:DISL:1,2011-07-01T11:00:00Z,30.2513,-88.0778,9.68,3.62,286.1,-9999.0,'1111122,1111122,1111122' 
DISL,ioos:station:DISL:DISL:1,2011-07-01T11:30:00Z,30.2513,-88.0778,9.68,5.46,299.1,-9999.0,'1111122,1111122,1111122' 
DISL,ioos:station:DISL:DISL:1,2011-07-01T12:00:00Z,30.2513,-88.0778,9.68,5.4,301.8,-9999.0,'1111122,1111122,1111122' 
DISL,ioos:station:DISL:DISL:1,2011-07-01T12:30:00Z,30.2513,-88.0778,9.68,5.85,325.0,-9999.0,'1111122,1111122,1111122' 
DISL,ioos:station:DISL:DISL:1,2011-07-01T13:00:00Z,30.2513,-88.0778,9.68,3.49,352.2,-9999.0,'1111122,1111122,1111122' 
DISL,ioos:station:DISL:DISL:1,2011-07-01T13:30:00Z,30.2513,-88.0778,9.68,3.31,347.7,-9999.0,'1111122,1111122,1111122' 
DISL,ioos:station:DISL:DISL:1,2011-07-01T14:00:00Z,30.2513,-88.0778,9.68,3.32,343.7,-9999.0,'1111122,1111122,1111122' 
DISL,ioos:station:DISL:DISL:1,2011-07-01T14:30:00Z,30.2513,-88.0778,9.68,2.37,9.93,-9999.0,'1111122,1111122,1111122' 
DISL,ioos:station:DISL:DISL:1,2011-07-01T15:00:00Z,30.2513,-88.0778,9.68,3.05,41.66,-9999.0,'1111122,1111122,1111122' 
DISL,ioos:station:DISL:DISL:1,2011-07-01T15:30:00Z,30.2513,-88.0778,9.68,3.3,55.02,-9999.0,'1111122,1111122,1111122' 
DISL,ioos:station:DISL:DISL:1,2011-07-01T16:00:00Z,30.2513,-88.0778,9.68,3.24,57.91,-9999.0,'1111122,1111122,1111122' 
DISL,ioos:station:DISL:DISL:1,2011-07-01T16:30:00Z,30.2513,-88.0778,9.68,2.47,76.3,-9999.0,'1111122,1111122,1111122' 
DISL,ioos:station:DISL:DISL:1,2011-07-01T17:00:00Z,30.2513,-88.0778,9.68,1.88,90.3,-9999.0,'1111122,1111122,1111122' 
DISL,ioos:station:DISL:DISL:1,2011-07-01T17:30:00Z,30.2513,-88.0778,9.68,2.22,102.6,-9999.0,'1111122,1111122,1111122' 
DISL,ioos:station:DISL:DISL:1,2011-07-01T18:00:00Z,30.2513,-88.0778,9.68,2.18,120.2,-9999.0,'1111122,1111122,1111122' 
DISL,ioos:station:DISL:DISL:1,2011-07-01T18:30:00Z,30.2513,-88.0778,9.68,2.95,166.5,-9999.0,'1111122,1111122,1111122' 
DISL,ioos:station:DISL:DISL:1,2011-07-01T19:00:00Z,30.2513,-88.0778,9.68,3.61,171.8,-9999.0,'1111122,1111122,1111122' 
DISL,ioos:station:DISL:DISL:1,2011-07-01T19:30:00Z,30.2513,-88.0778,9.68,4.02,172.8,-9999.0,'1111122,1111122,1111122' 
DISL,ioos:station:DISL:DISL:1,2011-07-01T20:00:00Z,30.2513,-88.0778,9.68,4.23,186.8,-9999.0,'1111122,1111122,1111122' 
DISL,ioos:station:DISL:DISL:1,2011-07-01T20:30:00Z,30.2513,-88.0778,9.68,4.09,177.5,-9999.0,'1111122,1111122,1111122' 
DISL,ioos:station:DISL:DISL:1,2011-07-01T21:00:00Z,30.2513,-88.0778,9.68,3.43,178.9,-9999.0,'1111122,1111122,1111122' 
DISL,ioos:station:DISL:DISL:1,2011-07-01T21:30:00Z,30.2513,-88.0778,9.68,3.69,199.1,-9999.0,'1111122,1111122,1111122' 
DISL,ioos:station:DISL:DISL:1,2011-07-01T22:00:00Z,30.2513,-88.0778,9.68,3.23,196.4,-9999.0,'1111122,1111122,1111122' 
DISL,ioos:station:DISL:DISL:1,2011-07-01T22:30:00Z,30.2513,-88.0778,9.68,3.32,215.7,-9999.0,'1111122,1111122,1111122' 
DISL,ioos:station:DISL:DISL:1,2011-07-01T23:00:00Z,30.2513,-88.0778,9.68,3.26,204.7,-9999.0,'1111122,1111122,1111122' 
DISL,ioos:station:DISL:DISL:1,2011-07-01T23:30:00Z,30.2513,-88.0778,9.68,3.03,212.3,-9999.0,'1111122,1111122,1111122' 
DISL,ioos:station:DISL:DISL:1,2011-07-02T00:00:00Z,30.2513,-88.0778,9.68,2.53,223.7,-9999.0,'1111122,1111122,1111122' 
DISL,ioos:station:DISL:DISL:1,2011-07-02T00:30:00Z,30.2513,-88.0778,9.68,2.46,209.6,-9999.0,'1111122,1111122,1111122' 
DISL,ioos:station:DISL:DISL:1,2011-07-02T01:00:00Z,30.2513,-88.0778,9.68,2.8,211.0,-9999.0,'1111122,1111122,1111122' 
DISL,ioos:station:DISL:DISL:1,2011-07-02T01:30:00Z,30.2513,-88.0778,9.68,2.6,213.0,-9999.0,'1111122,1111122,1111122' 
DISL,ioos:station:DISL:DISL:1,2011-07-02T02:00:00Z,30.2513,-88.0778,9.68,2.23,213.9,-9999.0,'1111122,1111122,1111122' 
DISL,ioos:station:DISL:DISL:1,2011-07-02T02:30:00Z,30.2513,-88.0778,9.68,2.39,215.0,-9999.0,'1111122,1111122,1111122' 
DISL,ioos:station:DISL:DISL:1,2011-07-02T03:00:00Z,30.2513,-88.0778,9.68,2.66,225.6,-9999.0,'1111122,1111122,1111122' 
DISL,ioos:station:DISL:DISL:1,2011-07-02T03:30:00Z,30.2513,-88.0778,9.68,2.34,237.5,-9999.0,'1111122,1111122,1111122' 
DISL,ioos:station:DISL:DISL:1,2011-07-02T04:00:00Z,30.2513,-88.0778,9.68,2.43,233.2,-9999.0,'1111122,1111122,1111122' 
DISL,ioos:station:DISL:DISL:1,2011-07-02T04:30:00Z,30.2513,-88.0778,9.68,2.14,241.6,-9999.0,'1111122,1111122,1111122' 
DISL,ioos:station:DISL:DISL:1,2011-07-02T05:00:00Z,30.2513,-88.0778,9.68,2.44,247.0,-9999.0,'1111122,1111122,1111122' 
DISL,ioos:station:DISL:DISL:1,2011-07-02T05:30:00Z,30.2513,-88.0778,9.68,2.65,244.7,-9999.0,'1111122,1111122,1111122' 
DISL,ioos:station:DISL:DISL:1,2011-07-02T06:00:00Z,30.2513,-88.0778,9.68,2.21,255.9,-9999.0,'1111122,1111122,1111122' 
DISL,ioos:station:DISL:DISL:1,2011-07-02T06:30:00Z,30.2513,-88.0778,9.68,2.5,258.4,-9999.0,'1111122,1111122,1111122' 
DISL,ioos:station:DISL:DISL:1,2011-07-02T07:00:00Z,30.2513,-88.0778,9.68,2.76,259.6,-9999.0,'1111122,1111122,1111122' 
DISL,ioos:station:DISL:DISL:1,2011-07-02T07:30:00Z,30.2513,-88.0778,9.68,2.56,259.1,-9999.0,'1111122,1111122,1111122' 
DISL,ioos:station:DISL:DISL:1,2011-07-02T08:00:00Z,30.2513,-88.0778,9.68,2.39,263.1,-9999.0,'1111122,1111122,1111122' 
DISL,ioos:station:DISL:DISL:1,2011-07-02T08:30:00Z,30.2513,-88.0778,9.68,2.8,255.9,-9999.0,'1111122,1111122,1111122' 
DISL,ioos:station:DISL:DISL:1,2011-07-02T09:00:00Z,30.2513,-88.0778,9.68,3.98,279.0,-9999.0,'1111122,1111122,1111122' 
DISL,ioos:station:DISL:DISL:1,2011-07-02T09:30:00Z,30.2513,-88.0778,9.68,5.98,299.8,-9999.0,'1111122,1111122,1111122' 
DISL,ioos:station:DISL:DISL:1,2011-07-02T10:00:00Z,30.2513,-88.0778,9.68,5.17,301.3,-9999.0,'1111122,1111122,1111122' 
DISL,ioos:station:DISL:DISL:1,2011-07-02T10:30:00Z,30.2513,-88.0778,9.68,6.08,293.2,-9999.0,'1111122,1111122,1111122' 
DISL,ioos:station:DISL:DISL:1,2011-07-02T11:00:00Z,30.2513,-88.0778,9.68,6.88,292.7,-9999.0,'1111122,1111122,1111122' 
DISL,ioos:station:DISL:DISL:1,2011-07-02T11:30:00Z,30.2513,-88.0778,9.68,6.21,299.2,-9999.0,'1111122,1111122,1111122' 
DISL,ioos:station:DISL:DISL:1,2011-07-02T12:00:00Z,30.2513,-88.0778,9.68,5.89,294.0,-9999.0,'1111122,1111122,1111122' 
DISL,ioos:station:DISL:DISL:1,2011-07-02T12:30:00Z,30.2513,-88.0778,9.68,5.41,304.8,-9999.0,'1111122,1111122,1111122' 
DISL,ioos:station:DISL:DISL:1,2011-07-02T13:00:00Z,30.2513,-88.0778,9.68,4.2,315.9,-9999.0,'1111122,1111122,1111122' 
DISL,ioos:station:DISL:DISL:1,2011-07-02T13:30:00Z,30.2513,-88.0778,9.68,2.76,352.3,-9999.0,'1111122,1111122,1111122' 
DISL,ioos:station:DISL:DISL:1,2011-07-02T14:00:00Z,30.2513,-88.0778,9.68,2.67,9.82,-9999.0,'1111122,1111122,1111122' 
DISL,ioos:station:DISL:DISL:1,2011-07-02T14:30:00Z,30.2513,-88.0778,9.68,3.05,35.56,-9999.0,'1111122,1111122,1111122' 
DISL,ioos:station:DISL:DISL:1,2011-07-02T15:00:00Z,30.2513,-88.0778,9.68,1.59,48.24,-9999.0,'1111122,1111122,1111122' 
DISL,ioos:station:DISL:DISL:1,2011-07-02T15:30:00Z,30.2513,-88.0778,9.68,1.55,65.15,-9999.0,'1111122,1111122,1111122' 
DISL,ioos:station:DISL:DISL:1,2011-07-02T16:00:00Z,30.2513,-88.0778,9.68,2.22,94.4,-9999.0,'1111122,1111122,1111122' 
DISL,ioos:station:DISL:DISL:1,2011-07-02T16:30:00Z,30.2513,-88.0778,9.68,3.0,161.4,-9999.0,'1111122,1111122,1111122' 
DISL,ioos:station:DISL:DISL:1,2011-07-02T17:00:00Z,30.2513,-88.0778,9.68,3.65,157.5,-9999.0,'1111122,1111122,1111122' 
DISL,ioos:station:DISL:DISL:1,2011-07-02T17:30:00Z,30.2513,-88.0778,9.68,3.4,164.3,-9999.0,'1111122,1111122,1111122' 
DISL,ioos:station:DISL:DISL:1,2011-07-02T18:00:00Z,30.2513,-88.0778,9.68,3.81,162.8,-9999.0,'1111122,1111122,1111122' 
DISL,ioos:station:DISL:DISL:1,2011-07-02T18:30:00Z,30.2513,-88.0778,9.68,3.25,156.1,-9999.0,'1111122,1111122,1111122' 
DISL,ioos:station:DISL:DISL:1,2011-07-02T19:00:00Z,30.2513,-88.0778,9.68,4.16,160.9,-9999.0,'1111122,1111122,1111122' 
DISL,ioos:station:DISL:DISL:1,2011-07-02T19:30:00Z,30.2513,-88.0778,9.68,3.56,161.6,-9999.0,'1111122,1111122,1111122' 
DISL,ioos:station:DISL:DISL:1,2011-07-02T20:00:00Z,30.2513,-88.0778,9.68,3.04,175.0,-9999.0,'1111122,1111122,1111122' 
DISL,ioos:station:DISL:DISL:1,2011-07-02T20:30:00Z,30.2513,-88.0778,9.68,3.7,166.7,-9999.0,'1111122,1111122,1111122' 
DISL,ioos:station:DISL:DISL:1,2011-07-02T21:00:00Z,30.2513,-88.0778,9.68,2.59,142.3,-9999.0,'1111122,1111122,1111122' 
DISL,ioos:station:DISL:DISL:1,2011-07-02T21:30:00Z,30.2513,-88.0778,9.68,2.91,85.1,-9999.0,'1111122,1111122,1111122' 
DISL,ioos:station:DISL:DISL:1,2011-07-02T22:00:00Z,30.2513,-88.0778,9.68,5.36,94.4,-9999.0,'1111122,1111122,1111122' 
DISL,ioos:station:DISL:DISL:1,2011-07-02T22:30:00Z,30.2513,-88.0778,9.68,1.58,137.8,-9999.0,'1111122,1111122,1111122' 
DISL,ioos:station:DISL:DISL:1,2011-07-02T23:00:00Z,30.2513,-88.0778,9.68,1.85,123.9,-9999.0,'1111122,1111122,1111122' 
DISL,ioos:station:DISL:DISL:1,2011-07-02T23:30:00Z,30.2513,-88.0778,9.68,2.17,143.0,-9999.0,'1111122,1111122,1111122' 
DISL,ioos:station:DISL:DISL:1,2011-07-03T00:00:00Z,30.2513,-88.0778,9.68,1.99,134.1,-9999.0,'1111122,1111122,1111122' 
DISL,ioos:station:DISL:DISL:1,2011-07-03T00:30:00Z,30.2513,-88.0778,9.68,1.92,167.1,-9999.0,'1111122,1111122,1111122' 
DISL,ioos:station:DISL:DISL:1,2011-07-03T01:00:00Z,30.2513,-88.0778,9.68,1.54,187.1,-9999.0,'1111122,1111122,1111122' 
DISL,ioos:station:DISL:DISL:1,2011-07-03T01:30:00Z,30.2513,-88.0778,9.68,1.59,167.3,-9999.0,'1111122,1111122,1111122' 
DISL,ioos:station:DISL:DISL:1,2011-07-03T02:00:00Z,30.2513,-88.0778,9.68,1.53,195.7,-9999.0,'1111122,1111122,1111122' 
DISL,ioos:station:DISL:DISL:1,2011-07-03T02:30:00Z,30.2513,-88.0778,9.68,2.0,165.3,-9999.0,'1111122,1111122,1111122' 
DISL,ioos:station:DISL:DISL:1,2011-07-03T03:00:00Z,30.2513,-88.0778,9.68,2.74,156.3,-9999.0,'1111122,1111122,1111122' 
DISL,ioos:station:DISL:DISL:1,2011-07-03T03:30:00Z,30.2513,-88.0778,9.68,1.93,166.7,-9999.0,'1111122,1111122,1111122' 
DISL,ioos:station:DISL:DISL:1,2011-07-03T04:00:00Z,30.2513,-88.0778,9.68,1.67,168.1,-9999.0,'1111122,1111122,1111122' 
DISL,ioos:station:DISL:DISL:1,2011-07-03T04:30:00Z,30.2513,-88.0778,9.68,1.56,217.6,-9999.0,'1111122,1111122,1111122' 
DISL,ioos:station:DISL:DISL:1,2011-07-03T05:00:00Z,30.2513,-88.0778,9.68,1.99,227.5,-9999.0,'1111122,1111122,1111122' 
DISL,ioos:station:DISL:DISL:1,2011-07-03T05:30:00Z,30.2513,-88.0778,9.68,1.68,186.2,-9999.0,'1111122,1111122,1111122' 
DISL,ioos:station:DISL:DISL:1,2011-07-03T06:00:00Z,30.2513,-88.0778,9.68,1.43,204.9,-9999.0,'1111122,1111122,1111122' 
DISL,ioos:station:DISL:DISL:1,2011-07-03T06:30:00Z,30.2513,-88.0778,9.68,1.82,208.8,-9999.0,'1111122,1111122,1111122' 
DISL,ioos:station:DISL:DISL:1,2011-07-03T07:00:00Z,30.2513,-88.0778,9.68,1.79,237.7,-9999.0,'1111122,1111122,1111122' 
DISL,ioos:station:DISL:DISL:1,2011-07-03T07:30:00Z,30.2513,-88.0778,9.68,1.14,233.1,-9999.0,'1111122,1111122,1111122' 
DISL,ioos:station:DISL:DISL:1,2011-07-03T08:00:00Z,30.2513,-88.0778,9.68,0.95,222.6,-9999.0,'1111122,1111122,1111122' 
DISL,ioos:station:DISL:DISL:1,2011-07-03T08:30:00Z,30.2513,-88.0778,9.68,1.27,194.0,-9999.0,'1111122,1111122,1111122' 
DISL,ioos:station:DISL:DISL:1,2011-07-03T09:00:00Z,30.2513,-88.0778,9.68,0.54,236.4,-9999.0,'1111122,1111122,1111122' 
DISL,ioos:station:DISL:DISL:1,2011-07-03T09:30:00Z,30.2513,-88.0778,9.68,0.56,232.3,-9999.0,'1111122,1111122,1111122' 
DISL,ioos:station:DISL:DISL:1,2011-07-03T10:00:00Z,30.2513,-88.0778,9.68,0.57,242.6,-9999.0,'1111122,1111122,1111122' 
DISL,ioos:station:DISL:DISL:1,2011-07-03T10:30:00Z,30.2513,-88.0778,9.68,0.0,0.0,-9999.0,'1114422,1114422,1111122' 
DISL,ioos:station:DISL:DISL:1,2011-07-03T11:00:00Z,30.2513,-88.0778,9.68,0.89,136.9,-9999.0,'1111122,1111122,1111122' 
DISL,ioos:station:DISL:DISL:1,2011-07-03T11:30:00Z,30.2513,-88.0778,9.68,1.07,129.4,-9999.0,'1111122,1111122,1111122' 
DISL,ioos:station:DISL:DISL:1,2011-07-03T12:00:00Z,30.2513,-88.0778,9.68,1.15,134.0,-9999.0,'1111122,1111122,1111122' 
DISL,ioos:station:DISL:DISL:1,2011-07-03T12:30:00Z,30.2513,-88.0778,9.68,1.38,127.0,-9999.0,'1111122,1111122,1111122' 
DISL,ioos:station:DISL:DISL:1,2011-07-03T13:00:00Z,30.2513,-88.0778,9.68,1.31,98.2,-9999.0,'1111122,1111122,1111122' 
DISL,ioos:station:DISL:DISL:1,2011-07-03T13:30:00Z,30.2513,-88.0778,9.68,1.42,128.0,-9999.0,'1111122,1111122,1111122' 
DISL,ioos:station:DISL:DISL:1,2011-07-03T14:00:00Z,30.2513,-88.0778,9.68,2.24,136.8,-9999.0,'1111122,1111122,1111122' 
DISL,ioos:station:DISL:DISL:1,2011-07-03T14:30:00Z,30.2513,-88.0778,9.68,3.26,128.8,-9999.0,'1111122,1111122,1111122' 
DISL,ioos:station:DISL:DISL:1,2011-07-03T15:00:00Z,30.2513,-88.0778,9.68,3.09,126.3,-9999.0,'1111122,1111122,1111122' 
DISL,ioos:station:DISL:DISL:1,2011-07-03T15:30:00Z,30.2513,-88.0778,9.68,2.92,125.7,-9999.0,'1111122,1111122,1111122' 
DISL,ioos:station:DISL:DISL:1,2011-07-03T16:00:00Z,30.2513,-88.0778,9.68,2.99,123.1,-9999.0,'1111122,1111122,1111122' 
DISL,ioos:station:DISL:DISL:1,2011-07-03T16:30:00Z,30.2513,-88.0778,9.68,3.54,121.4,-9999.0,'1111122,1111122,1111122' 
DISL,ioos:station:DISL:DISL:1,2011-07-03T17:00:00Z,30.2513,-88.0778,9.68,3.48,136.1,-9999.0,'1111122,1111122,1111122' 
DISL,ioos:station:DISL:DISL:1,2011-07-03T17:30:00Z,30.2513,-88.0778,9.68,4.15,135.9,-9999.0,'1111122,1111122,1111122' 
DISL,ioos:station:DISL:DISL:1,2011-07-03T18:00:00Z,30.2513,-88.0778,9.68,4.19,132.6,-9999.0,'1111122,1111122,1111122' 
DISL,ioos:station:DISL:DISL:1,2011-07-03T18:30:00Z,30.2513,-88.0778,9.68,4.55,139.9,-9999.0,'1111122,1111122,1111122' 
DISL,ioos:station:DISL:DISL:1,2011-07-03T19:00:00Z,30.2513,-88.0778,9.68,3.81,157.8,-9999.0,'1111122,1111122,1111122' 
DISL,ioos:station:DISL:DISL:1,2011-07-03T19:30:00Z,30.2513,-88.0778,9.68,3.84,168.5,-9999.0,'1111122,1111122,1111122' 
DISL,ioos:station:DISL:DISL:1,2011-07-03T20:00:00Z,30.2513,-88.0778,9.68,3.86,154.0,-9999.0,'1111122,1111122,1111122' 
DISL,ioos:station:DISL:DISL:1,2011-07-03T20:30:00Z,30.2513,-88.0778,9.68,4.14,157.5,-9999.0,'1111122,1111122,1111122' 
DISL,ioos:station:DISL:DISL:1,2011-07-03T21:00:00Z,30.2513,-88.0778,9.68,3.65,159.6,-9999.0,'1111122,1111122,1111122' 
DISL,ioos:station:DISL:DISL:1,2011-07-03T21:30:00Z,30.2513,-88.0778,9.68,3.81,162.5,-9999.0,'1111122,1111122,1111122' 
DISL,ioos:station:DISL:DISL:1,2011-07-03T22:00:00Z,30.2513,-88.0778,9.68,4.05,170.7,-9999.0,'1111122,1111122,1111122' 
DISL,ioos:station:DISL:DISL:1,2011-07-03T22:30:00Z,30.2513,-88.0778,9.68,3.52,172.2,-9999.0,'1111122,1111122,1111122' 
DISL,ioos:station:DISL:DISL:1,2011-07-03T23:00:00Z,30.2513,-88.0778,9.68,3.2,166.5,-9999.0,'1111122,1111122,1111122' 
DISL,ioos:station:DISL:DISL:1,2011-07-03T23:30:00Z,30.2513,-88.0778,9.68,2.6,174.2,-9999.0,'1111122,1111122,1111122' 
DISL,ioos:station:DISL:DISL:1,2011-07-04T00:00:00Z,30.2513,-88.0778,9.68,3.01,169.0,-9999.0,'1111122,1111122,1111122' 
DISL,ioos:station:DISL:DISL:1,2011-07-04T00:30:00Z,30.2513,-88.0778,9.68,3.41,155.3,-9999.0,'1111122,1111122,1111122' 
DISL,ioos:station:DISL:DISL:1,2011-07-04T01:00:00Z,30.2513,-88.0778,9.68,2.43,154.2,-9999.0,'1111122,1111122,1111122' 
DISL,ioos:station:DISL:DISL:1,2011-07-04T01:30:00Z,30.2513,-88.0778,9.68,1.98,167.8,-9999.0,'1111122,1111122,1111122' 
DISL,ioos:station:DISL:DISL:1,2011-07-04T02:00:00Z,30.2513,-88.0778,9.68,1.57,171.6,-9999.0,'1111122,1111122,1111122' 
DISL,ioos:station:DISL:DISL:1,2011-07-04T02:30:00Z,30.2513,-88.0778,9.68,1.68,190.8,-9999.0,'1111122,1111122,1111122' 
DISL,ioos:station:DISL:DISL:1,2011-07-04T03:00:00Z,30.2513,-88.0778,9.68,1.24,201.7,-9999.0,'1111122,1111122,1111122' 
DISL,ioos:station:DISL:DISL:1,2011-07-04T03:30:00Z,30.2513,-88.0778,9.68,1.09,210.0,-9999.0,'1111122,1111122,1111122' 
DISL,ioos:station:DISL:DISL:1,2011-07-04T04:00:00Z,30.2513,-88.0778,9.68,1.48,168.4,-9999.0,'1111122,1111122,1111122' 
DISL,ioos:station:DISL:DISL:1,2011-07-04T04:30:00Z,30.2513,-88.0778,9.68,1.44,167.6,-9999.0,'1111122,1111122,1111122' 
DISL,ioos:station:DISL:DISL:1,2011-07-04T05:00:00Z,30.2513,-88.0778,9.68,1.08,191.4,-9999.0,'1111122,1111122,1111122' 
DISL,ioos:station:DISL:DISL:1,2011-07-04T05:30:00Z,30.2513,-88.0778,9.68,0.53,150.9,-9999.0,'1111122,1111122,1111122' 
DISL,ioos:station:DISL:DISL:1,2011-07-04T06:00:00Z,30.2513,-88.0778,9.68,1.03,165.8,-9999.0,'1111122,1111122,1111122' 
DISL,ioos:station:DISL:DISL:1,2011-07-04T06:30:00Z,30.2513,-88.0778,9.68,1.63,153.6,-9999.0,'1111122,1111122,1111122' 
DISL,ioos:station:DISL:DISL:1,2011-07-04T07:00:00Z,30.2513,-88.0778,9.68,1.61,166.9,-9999.0,'1111122,1111122,1111122' 
DISL,ioos:station:DISL:DISL:1,2011-07-04T07:30:00Z,30.2513,-88.0778,9.68,1.88,154.5,-9999.0,'1111122,1111122,1111122' 
DISL,ioos:station:DISL:DISL:1,2011-07-04T08:00:00Z,30.2513,-88.0778,9.68,1.82,155.8,-9999.0,'1111122,1111122,1111122' 
DISL,ioos:station:DISL:DISL:1,2011-07-04T08:30:00Z,30.2513,-88.0778,9.68,2.33,144.9,-9999.0,'1111122,1111122,1111122' 
DISL,ioos:station:DISL:DISL:1,2011-07-04T09:00:00Z,30.2513,-88.0778,9.68,2.03,152.1,-9999.0,'1111122,1111122,1111122' 
DISL,ioos:station:DISL:DISL:1,2011-07-04T09:30:00Z,30.2513,-88.0778,9.68,1.44,158.4,-9999.0,'1111122,1111122,1111122' 
DISL,ioos:station:DISL:DISL:1,2011-07-04T10:00:00Z,30.2513,-88.0778,9.68,0.97,163.7,-9999.0,'1111122,1111122,1111122' 
DISL,ioos:station:DISL:DISL:1,2011-07-04T10:30:00Z,30.2513,-88.0778,9.68,0.78,184.3,-9999.0,'1111122,1111122,1111122' 
DISL,ioos:station:DISL:DISL:1,2011-07-04T11:00:00Z,30.2513,-88.0778,9.68,1.15,172.9,-9999.0,'1111122,1111122,1111122' 
DISL,ioos:station:DISL:DISL:1,2011-07-04T11:30:00Z,30.2513,-88.0778,9.68,0.65,231.4,-9999.0,'1111122,1111122,1111122' 
DISL,ioos:station:DISL:DISL:1,2011-07-04T12:00:00Z,30.2513,-88.0778,9.68,0.01,189.5,-9999.0,'1111122,1111122,1111122' 
DISL,ioos:station:DISL:DISL:1,2011-07-04T12:30:00Z,30.2513,-88.0778,9.68,0.69,143.9,-9999.0,'1111122,1111122,1111122' 
DISL,ioos:station:DISL:DISL:1,2011-07-04T13:00:00Z,30.2513,-88.0778,9.68,1.64,123.1,-9999.0,'1111122,1111122,1111122' 
DISL,ioos:station:DISL:DISL:1,2011-07-04T13:30:00Z,30.2513,-88.0778,9.68,1.54,98.4,-9999.0,'1111122,1111122,1111122' 
DISL,ioos:station:DISL:DISL:1,2011-07-04T14:00:00Z,30.2513,-88.0778,9.68,0.95,69.71,-9999.0,'1111122,1111122,1111122' 
DISL,ioos:station:DISL:DISL:1,2011-07-04T14:30:00Z,30.2513,-88.0778,9.68,1.66,86.9,-9999.0,'1111122,1111122,1111122' 
DISL,ioos:station:DISL:DISL:1,2011-07-04T15:00:00Z,30.2513,-88.0778,9.68,1.49,72.9,-9999.0,'1111122,1111122,1111122' 
DISL,ioos:station:DISL:DISL:1,2011-07-04T15:30:00Z,30.2513,-88.0778,9.68,1.38,50.01,-9999.0,'1111122,1111122,1111122' 
DISL,ioos:station:DISL:DISL:1,2011-07-04T16:00:00Z,30.2513,-88.0778,9.68,1.95,76.6,-9999.0,'1111122,1111122,1111122' 
DISL,ioos:station:DISL:DISL:1,2011-07-04T16:30:00Z,30.2513,-88.0778,9.68,2.07,100.4,-9999.0,'1111122,1111122,1111122' 
DISL,ioos:station:DISL:DISL:1,2011-07-04T17:00:00Z,30.2513,-88.0778,9.68,2.4,106.4,-9999.0,'1111122,1111122,1111122' 
DISL,ioos:station:DISL:DISL:1,2011-07-04T17:30:00Z,30.2513,-88.0778,9.68,2.7,105.1,-9999.0,'1111122,1111122,1111122' 
DISL,ioos:station:DISL:DISL:1,2011-07-04T18:00:00Z,30.2513,-88.0778,9.68,2.6,116.2,-9999.0,'1111122,1111122,1111122' 
DISL,ioos:station:DISL:DISL:1,2011-07-04T18:30:00Z,30.2513,-88.0778,9.68,3.35,139.2,-9999.0,'1111122,1111122,1111122' 
DISL,ioos:station:DISL:DISL:1,2011-07-04T19:00:00Z,30.2513,-88.0778,9.68,3.44,149.9,-9999.0,'1111122,1111122,1111122' 
DISL,ioos:station:DISL:DISL:1,2011-07-04T19:30:00Z,30.2513,-88.0778,9.68,3.87,136.3,-9999.0,'1111122,1111122,1111122' 
DISL,ioos:station:DISL:DISL:1,2011-07-04T20:00:00Z,30.2513,-88.0778,9.68,3.83,133.5,-9999.0,'1111122,1111122,1111122' 
DISL,ioos:station:DISL:DISL:1,2011-07-04T20:30:00Z,30.2513,-88.0778,9.68,3.6,139.8,-9999.0,'1111122,1111122,1111122' 
DISL,ioos:station:DISL:DISL:1,2011-07-04T21:00:00Z,30.2513,-88.0778,9.68,4.32,144.9,-9999.0,'1111122,1111122,1111122' 
DISL,ioos:station:DISL:DISL:1,2011-07-04T21:30:00Z,30.2513,-88.0778,9.68,3.89,145.3,-9999.0,'1111122,1111122,1111122' 
DISL,ioos:station:DISL:DISL:1,2011-07-04T22:00:00Z,30.2513,-88.0778,9.68,3.75,140.1,-9999.0,'1111122,1111122,1111122' 
DISL,ioos:station:DISL:DISL:1,2011-07-04T22:30:00Z,30.2513,-88.0778,9.68,2.95,156.4,-9999.0,'1111122,1111122,1111122' 
DISL,ioos:station:DISL:DISL:1,2011-07-04T23:00:00Z,30.2513,-88.0778,9.68,2.68,166.0,-9999.0,'1111122,1111122,1111122' 
DISL,ioos:station:DISL:DISL:1,2011-07-04T23:30:00Z,30.2513,-88.0778,9.68,2.66,163.0,-9999.0,'1111122,1111122,1111122' 
DISL,ioos:station:DISL:DISL:1,2011-07-05T00:00:00Z,30.2513,-88.0778,9.68,2.61,158.5,-9999.0,'1111122,1111122,1111122' 
DISL,ioos:station:DISL:DISL:1,2011-07-05T00:30:00Z,30.2513,-88.0778,9.68,2.52,160.7,-9999.0,'1111122,1111122,1111122' 
DISL,ioos:station:DISL:DISL:1,2011-07-05T01:00:00Z,30.2513,-88.0778,9.68,1.97,158.1,-9999.0,'1111122,1111122,1111122' 
DISL,ioos:station:DISL:DISL:1,2011-07-05T01:30:00Z,30.2513,-88.0778,9.68,1.73,161.4,-9999.0,'1111122,1111122,1111122' 
DISL,ioos:station:DISL:DISL:1,2011-07-05T02:00:00Z,30.2513,-88.0778,9.68,1.43,197.5,-9999.0,'1111122,1111122,1111122' 
DISL,ioos:station:DISL:DISL:1,2011-07-05T02:30:00Z,30.2513,-88.0778,9.68,1.43,188.0,-9999.0,'1111122,1111122,1111122' 
DISL,ioos:station:DISL:DISL:1,2011-07-05T03:00:00Z,30.2513,-88.0778,9.68,0.97,164.9,-9999.0,'1111122,1111122,1111122' 
DISL,ioos:station:DISL:DISL:1,2011-07-05T03:30:00Z,30.2513,-88.0778,9.68,2.47,151.8,-9999.0,'1111122,1111122,1111122' 
DISL,ioos:station:DISL:DISL:1,2011-07-05T04:00:00Z,30.2513,-88.0778,9.68,2.57,144.6,-9999.0,'1111122,1111122,1111122' 